Creek Data

    Home     View Charts     View Raw Data     Messages

ID Distance Battery Voltage Battery Current Internal Temp Internal Humidity External Temp Solar Input rssi snr Time Stamp Record
67105 12.5 3.77 0 85 45 68 5.1 -72 7 02/23/2026 02:00 PM 49938
67104 12.5 4.07 0 86 43 71 5.1 -72 8 02/23/2026 01:45 PM 49937
67103 12.5 3.99 0 83 44 69 5.1 -72 8 02/23/2026 01:30 PM 49936
67102 12.5 4.07 0 83 44 69 5.1 -72 6 02/23/2026 01:15 PM 49935
67101 12.5 3.77 0 80 44 69 5.1 -72 8 02/23/2026 01:00 PM 49934
67100 12.5 4.06 0 80 43 67 5.1 -72 7 02/23/2026 12:45 PM 49933
67099 12.5 3.77 0 79 44 65 5.1 -72 8 02/23/2026 12:30 PM 49932
67098 12.5 3.77 0 76 45 62 5.1 -70 8 02/23/2026 12:15 PM 49931
67097 12.5 3.77 0 75 45 63 5.1 -71 7 02/23/2026 12:00 PM 49930
67096 12.5 3.79 0 73 46 62 5.1 -71 7 02/23/2026 11:45 AM 49929
67095 12.5 3.77 0 72 45 64 5.1 -72 8 02/23/2026 11:30 AM 49928
67094 12.5 3.77 0 71 45 62 5.1 -72 6 02/23/2026 11:15 AM 49927
67093 12.4 3.77 0 65 47 63 5.1 -72 8 02/23/2026 10:45 AM 49925
67092 12.4 3.77 0 62 47 58 5.1 -71 8 02/23/2026 10:30 AM 49924
67091 12.4 3.82 0 62 47 59 5.1 -71 8 02/23/2026 10:15 AM 49923
67090 12.4 3.77 0 60 47 56 5.1 -71 7 02/23/2026 10:00 AM 49922
67089 12.4 3.77 0 59 47 58 5.1 -72 7 02/23/2026 09:45 AM 49921
67088 12.4 3.77 0 58 46 56 5.1 -73 7 02/23/2026 09:30 AM 49920
67087 12.4 4.04 0 56 46 54 5.1 -73 7 02/23/2026 09:15 AM 49919
67086 12.3 3.77 0 54 47 55 5.1 -73 8 02/23/2026 09:00 AM 49918
67085 12.3 3.77 0 52 47 53 5.1 -73 8 02/23/2026 08:45 AM 49917
67084 12.3 3.77 0 50 47 53 5.1 -74 8 02/23/2026 08:30 AM 49916
67083 12.3 3.77 0 48 48 51 5.1 -73 8 02/23/2026 08:15 AM 49915
67082 12.3 3.77 0 46 48 51 5.1 -74 8 02/23/2026 08:00 AM 49914
67081 12.2 3.77 0 44 49 46 5.1 -74 8 02/23/2026 07:45 AM 49913